TimePST,TemperatureF,Dew PointF,Humidity,Sea Level PressureIn,VisibilityMPH,Wind Direction,Wind SpeedMPH,Gust SpeedMPH,PrecipitationIn,Events,Conditions,WindDirDegrees,DateUTC
12:29 AM,42.8,37.4,81,30.01,10.0,SE,11.5,17.3,N/A,,Overcast,130,2013-02-21 08:29:00
12:53 AM,42.1,37.0,82,30.01,10.0,SSE,9.2,-,N/A,,Overcast,160,2013-02-21 08:53:00
1:53 AM,42.1,37.0,82,30.00,10.0,SE,9.2,-,N/A,,Overcast,140,2013-02-21 09:53:00
2:53 AM,41.0,36.0,82,30.00,10.0,South,3.5,-,N/A,,Overcast,170,2013-02-21 10:53:00
3:16 AM,41.0,35.6,81,30.00,10.0,Calm,Calm,-,N/A,,Scattered Clouds,0,2013-02-21 11:16:00
3:53 AM,39.9,37.0,89,29.99,10.0,Calm,Calm,-,N/A,,Overcast,0,2013-02-21 11:53:00
4:45 AM,41.0,37.4,87,30.00,10.0,South,4.6,-,N/A,,Overcast,180,2013-02-21 12:45:00
4:53 AM,41.0,37.9,89,30.00,10.0,South,5.8,-,N/A,,Overcast,170,2013-02-21 12:53:00
5:28 AM,41.0,37.4,87,30.00,10.0,South,4.6,-,0.00,Rain,Light Rain,170,2013-02-21 13:28:00
5:53 AM,41.0,37.9,89,30.00,10.0,South,9.2,-,0.00,,Overcast,170,2013-02-21 13:53:00
6:50 AM,41.0,37.4,87,30.00,10.0,SSW,6.9,-,0.02,,Overcast,200,2013-02-21 14:50:00
6:53 AM,41.0,37.0,86,30.00,10.0,SSW,8.1,-,0.02,,Overcast,200,2013-02-21 14:53:00
7:53 AM,41.0,36.0,82,30.00,10.0,SSW,5.8,-,N/A,,Overcast,200,2013-02-21 15:53:00
8:34 AM,41.0,37.4,87,30.00,10.0,SSW,5.8,-,0.00,Rain,Light Rain,200,2013-02-21 16:34:00
8:53 AM,41.0,37.0,86,30.01,10.0,South,8.1,-,0.00,Rain,Light Rain,180,2013-02-21 16:53:00
9:13 AM,41.0,37.4,87,30.01,10.0,South,5.8,-,0.00,Rain,Light Rain,170,2013-02-21 17:13:00
9:38 AM,41.0,37.4,87,30.00,9.0,South,5.8,-,0.00,Rain,Light Rain,170,2013-02-21 17:38:00
9:53 AM,42.1,39.0,89,30.00,10.0,SSE,9.2,-,0.00,,Overcast,150,2013-02-21 17:53:00
10:34 AM,42.8,39.2,87,30.00,10.0,ESE,11.5,19.6,N/A,,Overcast,120,2013-02-21 18:34:00
10:45 AM,42.8,39.2,87,29.99,10.0,SE,12.7,-,N/A,,Overcast,130,2013-02-21 18:45:00
10:53 AM,43.0,39.9,89,29.99,10.0,SE,9.2,-,N/A,,Mostly Cloudy,130,2013-02-21 18:53:00
11:01 AM,44.6,39.2,81,29.98,10.0,SE,11.5,17.3,N/A,,Mostly Cloudy,140,2013-02-21 19:01:00
11:53 AM,43.0,39.0,86,29.99,10.0,SE,10.4,20.7,N/A,,Overcast,140,2013-02-21 19:53:00
12:27 PM,42.8,37.4,81,29.99,10.0,SSE,13.8,18.4,0.00,,Overcast,150,2013-02-21 20:27:00
12:51 PM,44.6,39.2,81,29.99,10.0,SSE,11.5,18.4,0.00,,Overcast,150,2013-02-21 20:51:00
12:53 PM,44.1,39.0,82,29.99,10.0,SSE,12.7,18.4,0.00,,Overcast,150,2013-02-21 20:53:00
1:53 PM,44.1,37.9,79,29.99,10.0,South,10.4,-,N/A,,Overcast,170,2013-02-21 21:53:00
2:53 PM,46.0,37.9,73,29.99,10.0,SSW,5.8,-,N/A,,Overcast,200,2013-02-21 22:53:00
3:09 PM,46.4,37.4,71,29.99,10.0,SSW,8.1,-,N/A,,Overcast,210,2013-02-21 23:09:00
3:53 PM,44.1,37.9,79,30.00,10.0,South,5.8,-,N/A,,Overcast,190,2013-02-21 23:53:00
4:53 PM,43.0,39.0,86,30.01,9.0,South,5.8,-,0.00,Rain,Light Rain,190,2013-02-22 00:53:00
5:53 PM,43.0,37.9,82,30.02,10.0,SW,8.1,-,0.00,,Clear,220,2013-02-22 01:53:00
6:53 PM,43.0,37.9,82,30.01,10.0,SW,5.8,-,N/A,,Partly Cloudy,220,2013-02-22 02:53:00
7:53 PM,42.1,37.0,82,30.02,10.0,Variable,3.5,-,N/A,,Mostly Cloudy,0,2013-02-22 03:53:00
8:53 PM,44.1,37.0,76,30.04,10.0,SW,8.1,17.3,N/A,,Partly Cloudy,220,2013-02-22 04:53:00
9:53 PM,44.1,37.9,79,30.04,10.0,South,8.1,-,N/A,,Overcast,180,2013-02-22 05:53:00
11:53 PM,42.1,39.9,92,30.02,9.0,South,3.5,-,0.01,Rain,Light Rain,180,2013-02-22 07:53:00